DELTA 1 DEB, 14473

Orbit data source: Space-Track

DELTA 1 DEB, 14473 is space debris in SSO originally from a launch on Tue, 06 Nov 1973 UTC launched from the Air Force Western Test Range (AFWTR). Debris objects in space refer to the collection of defunct objects orbiting the Earth. Examples of debris include non-operational satellites, rocket bodies, and fragments generated from explosions, collisions, or faulty payload assembly.

Loading next visibility...
Identifier
14473, 1973-086GQ
Orbit
SSO
Country
Flag of USUS
Related business
Manufacturer
Unknown
Mission
Spacecraft
Bus & Motor
Unknown
Mass
Unknown
Launch date (UTC)
1973-11-06 (52 years ago)
Launch vehicle
Unknown
Launch site
Air Force Western Test Range (AFWTR)
Object type
Payload
Rocket body
Debris
Shape & HBR
Unknown shape, 0.1 m
Radar Cross Section
Small (<0.1 m²)

Expand to show TLE details & history
Last TLE update: 2 days ago

TLE from 2 days ago
0 DELTA 1 DEB
1 14473U 73086GQ  26032.29572773  .00002436  00000-0  16566-1 0  9998
2 14473 102.5781 150.9874 0226953 283.1557 134.8308 12.41991248917956
Epoch: 2026-02-01T07:05Z
TLE epoch observation values (Epoch: 2026-02-01T07:05:50.875Z)
Latitude
57.60152°
Longitude
-107.46452°
Altitude
1,635.661 km
Speed
7.001 km/s
True Right ascension
08h 42m 01s
True Declination
57° 27' 46"
Sunlit
Object was in full shadow at epoch
Visualization orbit readout
Latitude
Unknown
Longitude
Unknown
Altitude
Unknown
Speed
Unknown
Apparent Right ascension
Unknown
Apparent Declination
Unknown
Sunlit
N/A
Visualization observer readout
Local Sidereal Time
03:36:16
Azimuth
Unknown
Elevation
Unknown
Doppler factor
Unknown
Orbital elements
Apogee altitude
1,674.48 km
Perigee altitude
1,317.078 km
Semi-major axis
7,873.916 km
Eccentricity
0.0227
Inclination
102.5781°
RAAN
150.9874°
Arg. of periapsis
283.1557°
True anomaly
136.6387°
Mean anomaly
134.8308°
Eccentric anomaly
135.73836°
Mean motion
3.1064 °/min
Orbital period
115.89 mins
BSTAR
0.016566
Loading maneuver chart data...
Computing Atmospheric mass density...
Loading historical data...
Loading historical data...
Loading historical data...
Loading historical data...
Loading historical data...
Loading historical data...
Loading historical data...

Documentation

Showing up to 5 results
|